{"data":{"norad_id":59090,"intl_designator":"2024-041S","name":"STARLINK-31316","alt_names":[],"object_type":"PAYLOAD","status":"ACTIVE","operator":null,"country":"US","launch_date":"2024-02-29","launch_site_code":"AFETR","launch_vehicle":null,"mission":null,"orbit_class":"UNKNOWN","rcs_meters":null,"size_class":null,"mass_kg":null,"dimensions":null,"purposes":["comms"],"wikipedia_slug":null,"has_3d_model":false,"image_url":null,"decayed_at":null,"tle_current":{"epoch":"2026-09-20T16:13:14.450880Z","epoch_age_seconds":143657,"freshness":"FRESH","line1":"1 59090U 24041S   26263.67586170  .00000580  00000+0  30605-4 0  9993","line2":"2 59090  43.0026 242.7085 0001452 260.7847  99.2840 15.27579613144573","mean_motion":15.27579613,"eccentricity":0.0001452,"inclination_deg":43.0026,"raan_deg":242.7085,"arg_perigee_deg":260.7847,"mean_anomaly_deg":99.284,"bstar":3.0605e-5,"rev_number":14457,"period_min":94.266772595374,"perigee_km":482.05401046772,"apogee_km":484.04649924652,"semimajor_km":6861.1872548571,"source":"CELESTRAK","updated_at":"2026-09-21T09:00:34.036747Z"}}}